Location: Oak Glen
(34.0495°N, 116.9470°E)
Time: 01:01:40
(UTC-07:00)

Tiangong 2 - Pass Details

Date: 14 October 2017
Orbit: 388 x 391 km, 42.8° (Epoch: 22 October)

Event Time Altitude Azimuth Distance (km) Brightness Sun altitude
Exits shadow 14:17:09 12° 326° (NW) 1,322 3.4 -13.2°
Maximum altitude 14:19:00 17° 5° (N) 1,068 3.3 -12.8°
Drops below altitude 10° 14:21:13 10° 49° (NE) 1,417 4.6 -12.3°
Sets 14:23:47 0° 70° (ENE) 2,272 6.4 -11.8°
